• In Hungary
  • List of Countries
  • For 7 days
  • Water Temperature
  • Satellite Maps
  • Weather Map
  • News
  • Weather Widgets
  • user-avatar
    Login

    Hourly Weather Stanislavy

    Today, 25 June, Monday

    Time Temperature Precipitation Wind Pressure Humidity
    00:00 +10°C° 0 mm 3 mps 741 mmHg 94%
    01:00 +9°C° 0 mm 3 mps 742 mmHg 95%
    02:00 +9°C° 0 mm 2 mps 742 mmHg 96%
    03:00 +9°C° 0 mm 2 mps 742 mmHg 96%
    04:00 +9°C° 0 mm 2 mps 742 mmHg 96%
    05:00 +9°C° 0 mm 2 mps 742 mmHg 96%
    06:00 +11°C° 0 mm 3 mps 743 mmHg 92%
    07:00 +12°C° 0 mm 3 mps 743 mmHg 89%
    08:00 +14°C° 0 mm 3 mps 743 mmHg 85%
    09:00 +16°C° 0.1 mm 3 mps 743 mmHg 80%
    10:00 +17°C° 0.1 mm 3 mps 743 mmHg 75%
    11:00 +18°C° 0.1 mm 3 mps 743 mmHg 70%
    12:00 +19°C° 0.5 mm 3 mps 743 mmHg 68%
    13:00 +19°C° 0.5 mm 3 mps 743 mmHg 66%
    14:00 +20°C° 0.5 mm 2 mps 743 mmHg 65%
    15:00 +20°C° 0.4 mm 2 mps 743 mmHg 64%
    16:00 +20°C° 0.4 mm 2 mps 743 mmHg 64%
    17:00 +20°C° 0.4 mm 2 mps 743 mmHg 64%
    18:00 +20°C° 0.2 mm 1 mps 743 mmHg 70%
    19:00 +19°C° 0.2 mm 1 mps 743 mmHg 76%
    20:00 +16°C° 0.2 mm 1 mps 743 mmHg 81%
    21:00 +15°C° 0.2 mm 1 mps 743 mmHg 83%
    22:00 +14°C° 0.2 mm 1 mps 743 mmHg 85%
    23:00 +12°C° 0.2 mm 0 mps 743 mmHg 87%

    Tomorrow, 26 June, Tuesday

    Time Temperature Precipitation Wind Pressure Humidity
    00:00 +12°C° 0 mm 0 mps 744 mmHg 87%
    01:00 +12°C° 0 mm 0 mps 744 mmHg 88%
    02:00 +12°C° 0 mm 1 mps 744 mmHg 88%
    03:00 +11°C° 0 mm 0 mps 744 mmHg 89%
    04:00 +11°C° 0 mm 0 mps 744 mmHg 89%
    05:00 +11°C° 0 mm 0 mps 744 mmHg 89%
    06:00 +14°C° 0.1 mm 1 mps 744 mmHg 86%
    07:00 +15°C° 0.1 mm 1 mps 744 mmHg 84%
    08:00 +17°C° 0.1 mm 2 mps 744 mmHg 81%
    09:00 +18°C° 0.5 mm 2 mps 744 mmHg 78%
    10:00 +19°C° 0.5 mm 2 mps 744 mmHg 75%
    11:00 +20°C° 0.5 mm 3 mps 744 mmHg 72%
    12:00 +21°C° 0.8 mm 3 mps 744 mmHg 71%
    13:00 +21°C° 0.8 mm 3 mps 744 mmHg 69%
    14:00 +21°C° 0.8 mm 3 mps 744 mmHg 68%
    15:00 +21°C° 0.4 mm 3 mps 743 mmHg 69%
    16:00 +21°C° 0.4 mm 3 mps 743 mmHg 70%
    17:00 +21°C° 0.4 mm 3 mps 743 mmHg 71%
    18:00 +20°C° 0.6 mm 3 mps 743 mmHg 76%
    19:00 +19°C° 0.6 mm 3 mps 743 mmHg 81%
    20:00 +18°C° 0.6 mm 3 mps 743 mmHg 86%
    21:00 +17°C° 0 mm 2 mps 743 mmHg 87%
    22:00 +16°C° 0 mm 2 mps 743 mmHg 88%
    23:00 +15°C° 0 mm 2 mps 744 mmHg 90%

    Day after tomorrow, 27 June, Wednesday

    Time Temperature Precipitation Wind Pressure Humidity
    00:00 +15°C° 0 mm 2 mps 744 mmHg 90%
    01:00 +15°C° 0 mm 2 mps 744 mmHg 91%
    02:00 +14°C° 0 mm 2 mps 744 mmHg 91%
    03:00 +14°C° 0 mm 2 mps 744 mmHg 92%
    04:00 +14°C° 0 mm 2 mps 744 mmHg 92%
    05:00 +13°C° 0 mm 3 mps 744 mmHg 93%
    06:00 +16°C° 0 mm 3 mps 744 mmHg 89%
    07:00 +17°C° 0 mm 4 mps 744 mmHg 86%
    08:00 +19°C° 0 mm 4 mps 744 mmHg 82%
    09:00 +20°C° 0.1 mm 5 mps 744 mmHg 76%
    10:00 +21°C° 0.1 mm 5 mps 744 mmHg 71%
    11:00 +23°C° 0.1 mm 6 mps 744 mmHg 65%
    12:00 +23°C° 0 mm 6 mps 743 mmHg 63%
    13:00 +24°C° 0 mm 6 mps 743 mmHg 62%
    14:00 +26°C° 0 mm 6 mps 743 mmHg 61%
    15:00 +26°C° 0 mm 6 mps 742 mmHg 63%
    16:00 +26°C° 0 mm 6 mps 741 mmHg 65%
    17:00 +26°C° 0 mm 6 mps 741 mmHg 67%
    18:00 +24°C° 0.4 mm 6 mps 741 mmHg 72%
    19:00 +23°C° 0.4 mm 6 mps 740 mmHg 76%
    20:00 +22°C° 0.4 mm 7 mps 740 mmHg 81%
    21:00 +22°C° 0.9 mm 7 mps 740 mmHg 84%
    22:00 +21°C° 0.9 mm 7 mps 740 mmHg 87%
    23:00 +21°C° 0.9 mm 7 mps 740 mmHg 89%

    28 June, Thursday

    Time Temperature Precipitation Wind Pressure Humidity
    00:00 +20°C° 1.7 mm 7 mps 740 mmHg 91%
    01:00 +20°C° 1.7 mm 7 mps 739 mmHg 93%
    02:00 +20°C° 1.7 mm 7 mps 739 mmHg 95%
    03:00 +20°C° 0.7 mm 7 mps 739 mmHg 95%
    04:00 +20°C° 0.7 mm 7 mps 739 mmHg 95%
    05:00 +20°C° 0.7 mm 7 mps 739 mmHg 95%
    06:00 +20°C° 0.4 mm 7 mps 739 mmHg 94%
    07:00 +20°C° 0.4 mm 8 mps 739 mmHg 93%
    08:00 +21°C° 0.4 mm 8 mps 739 mmHg 92%
    09:00 +21°C° 0 mm 7 mps 739 mmHg 91%
    10:00 +22°C° 0 mm 7 mps 739 mmHg 90%
    11:00 +22°C° 0 mm 7 mps 739 mmHg 89%
    12:00 +23°C° 0.1 mm 6 mps 739 mmHg 88%
    13:00 +23°C° 0.1 mm 6 mps 739 mmHg 86%
    14:00 +24°C° 0.1 mm 6 mps 739 mmHg 85%
    15:00 +24°C° 0.4 mm 6 mps 739 mmHg 84%
    16:00 +26°C° 0.4 mm 5 mps 739 mmHg 82%
    17:00 +26°C° 0.4 mm 5 mps 739 mmHg 81%
    18:00 +25°C° 0.5 mm 5 mps 739 mmHg 83%
    19:00 +23°C° 0.5 mm 4 mps 739 mmHg 85%
    20:00 +22°C° 0.5 mm 4 mps 739 mmHg 87%
    21:00 +21°C° 0.4 mm 4 mps 739 mmHg 89%
    22:00 +21°C° 0.4 mm 4 mps 739 mmHg 90%
    23:00 +21°C° 0.4 mm 4 mps 739 mmHg 92%

    29 June, Friday

    Time Temperature Precipitation Wind Pressure Humidity
    00:00 +20°C° 1 mm 4 mps 739 mmHg 93%
    01:00 +20°C° 1 mm 3 mps 739 mmHg 94%
    02:00 +20°C° 1 mm 3 mps 738 mmHg 95%
    03:00 +20°C° 0.4 mm 3 mps 738 mmHg 95%
    04:00 +20°C° 0.4 mm 3 mps 738 mmHg 96%
    05:00 +19°C° 0.4 mm 3 mps 738 mmHg 97%
    06:00 +20°C° 0.2 mm 4 mps 738 mmHg 94%
    07:00 +21°C° 0.2 mm 4 mps 738 mmHg 92%
    08:00 +22°C° 0.2 mm 4 mps 737 mmHg 89%
    09:00 +25°C° 1.1 mm 4 mps 737 mmHg 85%
    10:00 +26°C° 1.1 mm 4 mps 737 mmHg 81%
    11:00 +27°C° 1.1 mm 5 mps 737 mmHg 76%
    12:00 +27°C° 0.8 mm 4 mps 737 mmHg 74%
    13:00 +28°C° 0.8 mm 4 mps 736 mmHg 73%
    14:00 +28°C° 0.8 mm 3 mps 736 mmHg 71%
    15:00 +28°C° 0.6 mm 3 mps 736 mmHg 70%
    16:00 +28°C° 0.6 mm 2 mps 736 mmHg 70%
    17:00 +29°C° 0.6 mm 2 mps 735 mmHg 70%
    18:00 +27°C° 1.6 mm 2 mps 735 mmHg 75%
    19:00 +26°C° 1.6 mm 2 mps 735 mmHg 79%
    20:00 +24°C° 1.6 mm 1 mps 735 mmHg 84%
    21:00 +23°C° 0.3 mm 1 mps 735 mmHg 85%
    22:00 +23°C° 0.3 mm 1 mps 734 mmHg 86%
    23:00 +22°C° 0.3 mm 1 mps 734 mmHg 87%

    30 June, Saturday

    Time Temperature Precipitation Wind Pressure Humidity
    00:00 +22°C° 0.4 mm 1 mps 734 mmHg 89%
    01:00 +21°C° 0.4 mm 1 mps 734 mmHg 90%
    02:00 +19°C° 0.4 mm 2 mps 734 mmHg 92%
    03:00 +19°C° 0.4 mm 3 mps 734 mmHg 93%
    04:00 +19°C° 0.4 mm 3 mps 734 mmHg 95%
    05:00 +19°C° 0.4 mm 4 mps 734 mmHg 96%
    06:00 +17°C° 0.2 mm 5 mps 735 mmHg 95%
    07:00 +17°C° 0.2 mm 6 mps 735 mmHg 94%
    08:00 +17°C° 0.2 mm 7 mps 736 mmHg 93%
    09:00 +17°C° 0.1 mm 7 mps 736 mmHg 87%
    10:00 +17°C° 0.1 mm 7 mps 737 mmHg 81%
    11:00 +18°C° 0.1 mm 7 mps 737 mmHg 75%
    12:00 +18°C° 0 mm 7 mps 738 mmHg 70%
    13:00 +20°C° 0 mm 8 mps 738 mmHg 64%
    14:00 +21°C° 0 mm 8 mps 738 mmHg 59%
    15:00 +21°C° 0 mm 7 mps 738 mmHg 60%
    16:00 +20°C° 0 mm 7 mps 738 mmHg 62%
    17:00 +20°C° 0 mm 7 mps 739 mmHg 63%
    18:00 +19°C° 0 mm 6 mps 739 mmHg 66%
    19:00 +17°C° 0 mm 5 mps 739 mmHg 69%
    20:00 +17°C° 0 mm 4 mps 739 mmHg 73%
    21:00 +15°C° 0 mm 4 mps 740 mmHg 72%
    22:00 +15°C° 0 mm 4 mps 740 mmHg 71%
    23:00 +14°C° 0 mm 4 mps 740 mmHg 70%
    Show more